Weather in Rozovka

Russia / Omsk Oblast     54°42′41″N   73°40′42″E
temp.,
°C
wind,
m/s
gust,
m/s
humid.,
%
clouds,
%
prec.,
mm/h
press.,
hPa
HPBL,
m
18 april, sun
sun1800:00+4ssw356399 0.0 102088
03:00+3sw487432 0.0 1017132
06:00+2sw487764 0.0 1016116
09:00+6wsw51164100 0.0 1013451
12:00+10wsw81246100 0.0 10111374
15:00+11w81449100 0.1 10082159
18:00+4nw111488100 0.2 10111005
21:00−3nnw11156874 0.1 10171148
19 april, mon
mon1900:00−5n9136239 0.1 10201086
03:00−6n710565 0.0 10231110
06:00−7n79535 0.0 1026999
09:00−7n78435 0.0 10281142
12:00−4nnw673573 0.0 10291572
15:00−2n6732100 0.0 10292027
18:00−3n6833100 0.0 10302103
21:00−4n58446 0.0 1031646
20 april, tue
tue2000:00−5n46505 0.0 10321146
03:00−5n45536 0.0 10321118
06:00−6n35590 0.0 1033689
09:00−4nnw34445 0.0 10331136
12:00−1nw44355 0.0 10321397
15:00+1w57325 0.0 10291610
18:00+2w69345 0.0 10271680
21:000wsw5115192 0.0 1026312
21 april, wed
wed2100:00+1wsw61353100 0.0 1023605
03:00+1wnw71367100 0.1 1021775
06:00+1nnw6977100 0.2 1021957
09:00+1nnw7107096 0.1 10231340
12:00+1n7963100 0.1 10251279
15:00+3n895898 0.1 10261555
18:00+2nne71063100 0.1 10291412
21:000n6117251 0.0 1032605
22 april, thu
thu2200:00−1nne511735 0.0 1034533
03:00−2nne59775 0.0 1036461
06:00−2nne49795 0.0 1039373
09:00+1ne57565 0.0 1041790
12:00+4ne44425 0.0 10421490
15:00+5ne333814 0.0 10421742
18:00+5ne333813 0.0 10431680
21:00+2ene34555 0.0 104546